Location: ?????????
(53.2086°N, 54.0693°E)
Time: 18:05:38
(UTC+00:00)

CSL-04 Rocket - Pass Details

Date: 08 December 2019
Orbit: 807 x 859 km, 99.0° (Epoch: 28 January)

Event Time Altitude Azimuth Distance (km) Brightness Sun altitude
Rises 15:16:24 0° 179° (S) 3,313 6.8 -27.0°
Reaches altitude 10° 15:18:48 10° 185° (S) 2,386 6.1 -27.4°
Maximum altitude 15:23:54 49° 260° (W) 1,045 4.5 -28.1°
Drops below altitude 10° 15:29:03 10° 335° (NNW) 2,412 6.3 -28.9°
Sets 15:31:30 0° 341° (NNW) 3,354 7.1 -29.3°
